Radioactive Concentration measured by Seawater Radiation Monitor near Fukushima Daiichi Nuclear Power Station
Date,Time,Cs137(Bq/L),Cs134(Bq/L),Total β(Bq/L)
2020/05/20,00:00,ND,ND,20
2020/05/20,00:10,ND,ND,22
2020/05/20,00:20,ND,ND,22
2020/05/20,00:30,ND,ND,21
2020/05/20,00:40,ND,ND,18
2020/05/20,00:50,ND,ND,19
2020/05/20,01:00,ND,ND,22
2020/05/20,01:10,ND,ND,22
2020/05/20,01:20,ND,ND,22
2020/05/20,01:30,ND,ND,22
2020/05/20,01:40,ND,ND,24
2020/05/20,01:50,ND,ND,26
2020/05/20,02:00,ND,ND,21
2020/05/20,02:10,ND,ND,22
2020/05/20,02:20,ND,ND,20
2020/05/20,02:30,ND,ND,22
2020/05/20,02:40,ND,ND,22
2020/05/20,02:50,ND,ND,22
2020/05/20,03:00,ND,ND,25
2020/05/20,03:10,ND,ND,24
2020/05/20,03:20,ND,ND,27
2020/05/20,03:30,ND,ND,26
2020/05/20,03:40,ND,ND,26
2020/05/20,03:50,ND,ND,21
2020/05/20,04:00,ND,ND,17
2020/05/20,04:10,ND,ND,16
2020/05/20,04:20,ND,ND,17
2020/05/20,04:30,ND,ND,14
2020/05/20,04:40,ND,ND,11
2020/05/20,04:50,ND,ND,14
2020/05/20,05:00,ND,ND,17
2020/05/20,05:10,ND,ND,19
2020/05/20,05:20,ND,ND,20
2020/05/20,05:30,ND,ND,22
2020/05/20,05:40,ND,ND,23
2020/05/20,05:50,ND,ND,23
2020/05/20,06:00,ND,ND,22
2020/05/20,06:10,ND,ND,22
2020/05/20,06:20,ND,ND,23
2020/05/20,06:30,ND,ND,23
2020/05/20,06:40,ND,ND,22
2020/05/20,06:50,ND,ND,22
2020/05/20,07:00,ND,ND,24
2020/05/20,07:10,ND,ND,22
2020/05/20,07:20,ND,ND,22
2020/05/20,07:30,ND,ND,20
2020/05/20,07:40,ND,ND,21
2020/05/20,07:50,ND,ND,20
2020/05/20,08:00,ND,ND,19
2020/05/20,08:10,ND,ND,20
2020/05/20,08:20,-,-,17
2020/05/20,08:30,-,-,21
2020/05/20,08:40,-,-,22
2020/05/20,08:50,-,-,24
2020/05/20,09:00,-,-,25
2020/05/20,09:10,-,-,25
2020/05/20,09:20,-,-,24
2020/05/20,09:30,-,-,22
2020/05/20,09:40,-,-,23
2020/05/20,09:50,-,-,23
2020/05/20,10:00,-,-,21
2020/05/20,10:10,-,-,22
2020/05/20,10:20,-,-,24
2020/05/20,10:30,-,-,25
2020/05/20,10:40,-,-,24
2020/05/20,10:50,-,-,24
2020/05/20,11:00,-,-,26
2020/05/20,11:10,-,-,26
2020/05/20,11:20,-,-,27
2020/05/20,11:30,-,-,26
2020/05/20,11:40,-,-,27
2020/05/20,11:50,-,-,27
2020/05/20,12:00,-,-,27
2020/05/20,12:10,-,-,25
2020/05/20,12:20,-,-,23
2020/05/20,12:30,-,-,22
2020/05/20,12:40,-,-,21
2020/05/20,12:50,-,-,23
2020/05/20,13:00,-,-,21
2020/05/20,13:10,-,-,20
2020/05/20,13:20,-,-,20
2020/05/20,13:30,-,-,22
2020/05/20,13:40,-,-,21
2020/05/20,13:50,-,-,17
2020/05/20,14:00,-,-,19
2020/05/20,14:10,-,-,21
2020/05/20,14:20,-,-,25
2020/05/20,14:30,-,-,26
2020/05/20,14:40,-,-,24
2020/05/20,14:50,-,-,26
2020/05/20,15:00,-,-,28
2020/05/20,15:10,-,-,26
2020/05/20,15:20,-,-,23
2020/05/20,15:30,-,-,20
2020/05/20,15:40,-,-,22
2020/05/20,15:50,-,-,23
2020/05/20,16:00,-,-,20
2020/05/20,16:10,-,-,22
2020/05/20,16:20,-,-,27
2020/05/20,16:30,-,-,27
2020/05/20,16:40,-,-,26
2020/05/20,16:50,-,-,23
2020/05/20,17:00,-,-,23
2020/05/20,17:10,-,-,21
2020/05/20,17:20,-,-,19
2020/05/20,17:30,-,-,22
2020/05/20,17:40,-,-,24
2020/05/20,17:50,-,-,25
2020/05/20,18:00,-,-,25
2020/05/20,18:10,-,-,23
2020/05/20,18:20,-,-,22
2020/05/20,18:30,-,-,19
2020/05/20,18:40,-,-,19
2020/05/20,18:50,-,-,20
2020/05/20,19:00,-,-,18
2020/05/20,19:10,-,-,20
2020/05/20,19:20,-,-,19
2020/05/20,19:30,-,-,19
2020/05/20,19:40,-,-,19
2020/05/20,19:50,-,-,16
2020/05/20,20:00,-,-,16
2020/05/20,20:10,-,-,16
2020/05/20,20:20,-,-,19
2020/05/20,20:30,-,-,21
2020/05/20,20:40,-,-,22
2020/05/20,20:50,-,-,24
2020/05/20,21:00,-,-,24
2020/05/20,21:10,-,-,24
2020/05/20,21:20,-,-,25
2020/05/20,21:30,-,-,24
2020/05/20,21:40,-,-,22
2020/05/20,21:50,-,-,23
2020/05/20,22:00,-,-,23
2020/05/20,22:10,-,-,24
2020/05/20,22:20,-,-,21
2020/05/20,22:30,-,-,20
2020/05/20,22:40,-,-,19
2020/05/20,22:50,-,-,18
2020/05/20,23:00,-,-,20
2020/05/20,23:10,-,-,22
2020/05/20,23:20,-,-,25
2020/05/20,23:30,-,-,27
2020/05/20,23:40,-,-,28
2020/05/20,23:50,-,-,29
